Weather History for Marshfield, WI

Change the Weather History Date:

Wednesday, June 19, 2013

  Actual Average Record
Temperature  
Mean Temperature 62 °F -  
Max Temperature 75 °F 76 °F 92 °F (1933)
Min Temperature 50 °F 52 °F 41 °F (1916)
Degree Days  
Heating Degree Days 2    
Growing Degree Days 12 (Base 50)    
Moisture  
Dew Point 51 °F    
Average Humidity 65    
Maximum Humidity 83    
Minimum Humidity 48    
Precipitation  
Precipitation 0.00 in - - ()
Sea Level Pressure  
Sea Level Pressure 30.10 in    
Wind  
Wind Speed 4 mph (SSE)    
Max Wind Speed 8 mph    
Max Gust Speed -    
Visibility 10 miles    
Events      
Averages and records for this station are not official NWS values.
T = Trace of Precipitation, MM = Missing Value Source: NWS Daily Summary

Daily Weather History Graph

Daily Weather History Graph

Search for Another Location

Airport:

Trip Planner

Search our weather history database for the weather conditions in past years. The results will help you decide how hot, cold, wet, or windy it might be!

Date:

Astronomy

Jun. 19, 2013 Rise Set
Actual Time 5:15 AM CDT 8:49 PM CDT
Civil Twilight 4:38 AM CDT 9:26 PM CDT
Nautical Twilight 3:49 AM CDT 10:15 PM CDT
Astronomical Twilight 2:44 AM CDT 11:19 PM CDT
Moon 4:35 PM CDT (6/19) 2:08 AM CDT (6/19)
Length of Visible Light 16h 48m
Length of Day
15h 34m
Waxing Gibbous, 80% of the Moon is Illuminated
Jun 19
Waxing Gibbous
Jun 23
Full
Jun 29
Last Quarter
Jul 8
New
Jul 15
First Quarter

Hourly Weather History & Observations

Time (CDT) Temp. Dew Point Humidity Pressure Visibility Wind Dir Wind Speed Gust Speed Precip Events Conditions
12:54 AM 53.1 °F 46.0 °F 77% 30.13 in 10.0 mi SSE 3.5 mph - N/A   Clear
1:54 AM 53.1 °F 46.0 °F 77% 30.12 in 10.0 mi SE 3.5 mph - N/A   Clear
2:54 AM 53.1 °F 46.0 °F 77% 30.13 in 10.0 mi SSE 3.5 mph - N/A   Clear
3:54 AM 51.1 °F 45.0 °F 80% 30.12 in 10.0 mi SE 3.5 mph - N/A   Clear
4:54 AM 50.0 °F 45.0 °F 83% 30.11 in 10.0 mi ESE 4.6 mph - N/A   Clear
5:54 AM 50.0 °F 45.0 °F 83% 30.13 in 10.0 mi Calm Calm - N/A   Clear
6:54 AM 54.0 °F 48.0 °F 80% 30.14 in 10.0 mi South 4.6 mph - N/A   Clear
7:54 AM 57.9 °F 48.9 °F 72% 30.15 in 10.0 mi SSE 4.6 mph - N/A   Mostly Cloudy
8:54 AM 60.1 °F 46.0 °F 60% 30.16 in 10.0 mi South 6.9 mph - N/A   Overcast
9:54 AM 64.0 °F 46.9 °F 54% 30.14 in 10.0 mi SSE 5.8 mph - N/A   Clear
10:54 AM 66.9 °F 48.0 °F 51% 30.13 in 10.0 mi South 8.1 mph - N/A   Clear
11:54 AM 68.0 °F 50.0 °F 52% 30.13 in 10.0 mi South 5.8 mph - N/A   Overcast
12:54 PM 70.0 °F 51.1 °F 51% 30.11 in 10.0 mi South 8.1 mph - N/A   Scattered Clouds
1:54 PM 73.0 °F 53.1 °F 49% 30.10 in 10.0 mi SSE 5.8 mph - N/A   Scattered Clouds
2:54 PM 75.0 °F 55.0 °F 50% 30.08 in 10.0 mi SSE 8.1 mph - N/A   Mostly Cloudy
3:54 PM 75.0 °F 54.0 °F 48% 30.07 in 10.0 mi Variable 4.6 mph - N/A   Partly Cloudy
4:54 PM 75.0 °F 55.0 °F 50% 30.06 in 10.0 mi South 6.9 mph - N/A   Mostly Cloudy
5:54 PM 75.0 °F 55.9 °F 51% 30.06 in 10.0 mi South 6.9 mph - N/A   Scattered Clouds
6:54 PM 72.0 °F 55.0 °F 55% 30.06 in 10.0 mi South 6.9 mph - N/A   Partly Cloudy
7:54 PM 71.1 °F 55.9 °F 59% 30.05 in 10.0 mi South 5.8 mph - N/A   Clear
8:54 PM 66.9 °F 57.0 °F 70% 30.05 in 10.0 mi South 4.6 mph - N/A   Clear
9:54 PM 64.9 °F 57.0 °F 75% 30.06 in 10.0 mi South 4.6 mph - N/A   Clear
10:54 PM 64.0 °F 55.9 °F 75% 30.07 in 10.0 mi Calm Calm - N/A   Clear
11:54 PM 61.0 °F 55.0 °F 81% 30.08 in 10.0 mi Calm Calm - N/A   Clear